2024/01/15 00:00:00,16.2,-1.0
2024/01/15 00:10:00,16.2,-1.1
2024/01/15 00:20:00,16.1,-1.0
2024/01/15 00:30:00,16.1,-1.0
2024/01/15 00:40:00,16.1,-0.8
2024/01/15 00:50:00,16.1,-1.1
2024/01/15 01:00:00,16.1,-0.9
2024/01/15 01:10:00,16.1,-0.8
2024/01/15 01:20:00,16.0,-0.6
2024/01/15 01:30:00,15.8,-0.9
2024/01/15 01:40:00,15.8,-0.9
2024/01/15 01:50:00,15.8,-0.9
2024/01/15 02:00:00,15.2,-1.1
2024/01/15 02:10:00,15.0,-0.7
2024/01/15 02:20:00,15.0,-1.0
2024/01/15 02:30:00,15.1,-0.7
2024/01/15 02:40:00,15.2,-1.2
2024/01/15 02:50:00,15.2,-0.8
2024/01/15 03:00:00,15.1,-1.1
2024/01/15 03:10:00,15.1,-0.6
2024/01/15 03:20:00,15.0,-0.7
2024/01/15 03:30:00,15.0,-0.7
2024/01/15 03:40:00,15.0,-0.3
2024/01/15 03:50:00,15.0,-0.2
2024/01/15 04:00:00,15.1,-0.4
2024/01/15 04:10:00,15.2,-0.2
2024/01/15 04:20:00,15.0,-0.2
2024/01/15 04:30:00,14.9,-0.5
2024/01/15 04:40:00,14.8,-0.7
2024/01/15 04:50:00,14.9,-0.7
2024/01/15 05:00:00,15.0,-0.9
2024/01/15 05:10:00,14.9,-1.0
2024/01/15 05:20:00,14.8,-0.8
2024/01/15 05:30:00,14.9,-0.6
2024/01/15 05:40:00,15.0,-1.1
2024/01/15 05:50:00,15.6,-0.8
2024/01/15 06:00:00,15.9,-1.0
2024/01/15 06:10:00,15.9,-1.0
2024/01/15 06:20:00,15.8,-1.2
2024/01/15 06:30:00,15.8,-1.4
2024/01/15 06:40:00,15.9,-1.0
2024/01/15 06:50:00,16.1,-1.8
2024/01/15 07:00:00,16.4,-1.2
2024/01/15 07:10:00,16.8,-1.3
2024/01/15 07:20:00,16.9,-1.2
2024/01/15 07:30:00,17.2,-1.3
2024/01/15 07:40:00,17.3,-1.1
2024/01/15 07:50:00,17.4,-1.4
2024/01/15 08:00:00,17.5,-1.1
2024/01/15 08:10:00,17.8,-1.3
2024/01/15 08:20:00,17.9,-1.3
2024/01/15 08:30:00,18.0,-1.3
2024/01/15 08:40:00,18.8,-1.1
2024/01/15 08:50:00,18.9,-1.0
2024/01/15 09:00:00,18.9,-1.0
2024/01/15 09:10:00,19.1,-1.1
2024/01/15 09:20:00,19.5,-1.1
2024/01/15 09:30:00,19.6,-1.0
2024/01/15 09:40:00,19.8,-0.6
2024/01/15 09:50:00,19.9,-0.9
2024/01/15 10:00:00,20.0,-0.9
2024/01/15 10:10:00,20.4,-1.1
2024/01/15 10:20:00,20.5,-0.8
2024/01/15 10:30:00,20.7,-0.6
2024/01/15 10:40:00,20.6,-0.8
2024/01/15 10:50:00,20.6,-1.1
2024/01/15 11:00:00,20.7,-0.8
2024/01/15 11:10:00,20.8,-0.8
2024/01/15 11:20:00,20.8,-1.0
2024/01/15 11:30:00,20.8,-1.7
2024/01/15 11:40:00,20.8,-1.5
2024/01/15 11:50:00,20.9,-1.7
2024/01/15 12:00:00,20.9,-2.0
2024/01/15 12:10:00,20.8,-2.4
2024/01/15 12:20:00,20.8,-2.0
2024/01/15 12:30:00,21.4,-2.1
2024/01/15 12:40:00,21.4,-1.5
2024/01/15 12:50:00,21.4,-2.1
2024/01/15 13:00:00,21.2,-2.1
2024/01/15 13:10:00,21.0,-2.1
2024/01/15 13:20:00,20.9,-2.1
2024/01/15 13:30:00,21.5,-2.0
2024/01/15 13:40:00,21.6,-1.9
2024/01/15 13:50:00,21.6,-2.1
2024/01/15 14:00:00,21.6,-2.2
2024/01/15 14:10:00,21.6,-1.9
2024/01/15 14:20:00,21.7,-2.1
2024/01/15 14:30:00,21.5,-1.7
2024/01/15 14:40:00,21.4,-1.9
2024/01/15 14:50:00,21.3,-2.1
2024/01/15 15:00:00,21.3,-1.9
2024/01/15 15:10:00,21.3,-1.9
2024/01/15 15:20:00,21.5,-1.7
2024/01/15 15:30:00,21.5,-1.8
2024/01/15 15:40:00,21.5,-2.2
2024/01/15 15:50:00,21.5,-2.1
2024/01/15 16:00:00,21.5,-2.1
2024/01/15 16:10:00,21.9,-2.1
2024/01/15 16:20:00,21.8,-2.1
2024/01/15 16:30:00,21.8,-2.2
2024/01/15 16:40:00,21.8,-2.3
2024/01/15 16:50:00,21.8,-2.6
2024/01/15 17:00:00,22.1,-2.3
2024/01/15 17:10:00,22.2,-2.6
2024/01/15 17:20:00,22.2,-2.6
2024/01/15 17:30:00,22.3,-2.6
2024/01/15 17:40:00,22.5,-2.8
2024/01/15 17:50:00,22.4,-3.3
2024/01/15 18:00:00,22.2,-2.7
2024/01/15 18:10:00,22.1,-2.7
2024/01/15 18:20:00,21.9,-2.5
2024/01/15 18:30:00,22.0,-2.5
2024/01/15 18:40:00,22.4,-2.8
2024/01/15 18:50:00,22.4,-2.7
2024/01/15 19:00:00,22.3,-2.5
2024/01/15 19:10:00,22.3,-2.5
2024/01/15 19:20:00,22.3,-2.4
2024/01/15 19:30:00,22.3,-2.6
2024/01/15 19:40:00,22.4,-2.7
2024/01/15 19:50:00,22.4,-2.7
2024/01/15 20:00:00,22.4,-2.4
2024/01/15 20:10:00,22.4,-2.7
2024/01/15 20:20:00,22.4,-2.4
2024/01/15 20:30:00,22.3,-2.2
2024/01/15 20:40:00,22.3,-2.2
2024/01/15 20:50:00,22.3,-2.4
2024/01/15 21:00:00,22.4,-2.3
2024/01/15 21:10:00,22.3,-2.7
2024/01/15 21:20:00,22.4,-2.5
2024/01/15 21:30:00,22.1,-2.4
2024/01/15 21:40:00,23.2,-2.5
2024/01/15 21:50:00,23.2,-2.3
2024/01/15 22:00:00,23.2,-2.7
2024/01/15 22:10:00,23.1,-2.7
2024/01/15 22:20:00,23.1,-2.2
2024/01/15 22:30:00,23.0,-2.4
2024/01/15 22:40:00,22.7,-2.6
2024/01/15 22:50:00,22.8,-2.4
2024/01/15 23:00:00,23.0,-2.6
2024/01/15 23:10:00,23.2,-2.3
2024/01/15 23:20:00,23.3,-2.4
2024/01/15 23:30:00,23.3,-2.3
2024/01/15 23:40:00,23.1,-2.5
2024/01/15 23:50:00,23.5,-2.4
